Content
SEND FEEDBACK

Daily
Averages
Monthly
Summary
Canada

SOREL, QUEBEC


Home > North America > Canada > Quebec
Elevation: 49 feet     Latitude: 46 28N     Longitude: 073 45W

WEATHER
 
SELECT A DAY
Number of Records: 198,145;   Date Range: 1/1/95 - 7/28/14
 
SHARE

PRINT THIS DATA

[ ← Previous Day ]
WEATHER ALMANAC - APRIL 17, 2013
[ Next Day → ]
[ °C ]   °F
Weather ElementAverageHighLow
Temperature46.5 °F55.4 °F (5:00 pm)37.4 °F (6:00 am)
Dewpoint26.5 °F32 °F (11:00 am)15.8 °F (11:00 pm)
Humidity46.2 %75 % (6:00 am)22 % (8:00 pm)
Barometer30.28 in30.36 in (8:00 pm)30.12 in (1:00 am)
Wind Speed8.5 mph12.7 mph (11:00 pm)
Weather ElementAverage
Visibility24.8 mi
Wind DirectionWSW (231.1 °)

Weather ElementTotal
Precipitation---
Heating Degree Days18.6 (Base 65)
Averaged from 27 records on April 17, 2013
WEATHER CONDITIONS BREAKOUT
WIND DIRECTION BREAKOUT
WEATHER BY HOUR - APRIL 17, 2013
[ °C ]   °F
Local TimeTemperatureDewpointHumidityBarometerVisibilityWind DirectionWind SpeedGust SpeedPrecipitationEventsConditions
1:00 AM44.6 °F30.2 °F57 %30.12 in15.0 miWest (280°)10.4 mphClear
2:00 AM42.0 °F30.0 °F51 %30.13 in15.0 miWest (270°)9.2 mph
2:00 AM42.8 °F30.2 °F61 %30.13 in15.0 miWest (260°)9.2 mphClear
3:00 AM41.0 °F30.2 °F65 %30.16 in15.0 miWest (260°)9.2 mphClear
4:00 AM41.0 °F30.2 °F65 %30.18 in15.0 miWest (280°)8.1 mphClear
5:00 AM39.2 °F30.2 °F70 %30.20 in15.0 miWNW (290°)8.1 mphClear
6:00 AM37.4 °F30.2 °F75 %30.22 in30.0 miWNW (290°)8.1 mphPartly Cloudy
7:00 AM39.2 °F28.4 °F65 %30.25 in30.0 miNW (310°)9.2 mphPartly Cloudy
8:00 AM42.0 °F29.0 °F50 %30.27 in28.0 miNW (310°)11.5 mph
8:00 AM42.8 °F30.2 °F61 %30.27 in30.0 miNW (310°)11.5 mphClear
9:00 AM42.8 °F30.2 °F61 %30.30 in30.0 miWNW (290°)11.5 mphPartly Cloudy
10:00 AM44.6 °F28.4 °F53 %30.31 in30.0 miNNW (330°)6.9 mphPartly Cloudy
11:00 AM48.2 °F32.0 °F54 %30.32 in30.0 miWNW (300°)11.5 mphPartly Cloudy
12:00 PM48.2 °F28.4 °F46 %30.31 in30.0 miWNW (300°)6.9 mphPartly Cloudy
1:00 PM50.0 °F26.6 °F40 %30.30 in30.0 miNorth (350°)6.9 mphPartly Cloudy
2:00 PM53.0 °F26.0 °F23 %30.33 in28.0 miWest (270°)3.5 mphScattered Clouds
2:00 PM51.8 °F26.6 °F38 %30.32 in30.0 miWNW (290°)5.8 mphPartly Cloudy
3:00 PM53.6 °F26.6 °F35 %30.33 in30.0 miWNW (290°)8.1 mphPartly Cloudy
4:00 PM53.6 °F21.2 °F28 %30.32 in30.0 miNW (320°)5.8 mphPartly Cloudy
5:00 PM55.4 °F26.6 °F33 %30.32 in30.0 miVariable2.3 mphPartly Cloudy
6:00 PM53.6 °F26.6 °F35 %30.34 in30.0 miSouth (190°)10.4 mphPartly Cloudy
7:00 PM53.6 °F24.8 °F33 %30.34 in30.0 miSSW (210°)6.9 mphPartly Cloudy
8:00 PM48.0 °F21.0 °F22 %30.36 in28.0 miNNE (30°)9.2 mphClear
8:00 PM48.2 °F21.2 °F34 %30.36 in30.0 miNNE (30°)8.1 mphPartly Cloudy
9:00 PM48.2 °F17.6 °F30 %30.36 in15.0 miEast (80°)8.1 mphClear
10:00 PM46.4 °F17.6 °F32 %30.35 in15.0 miNE (50°)11.5 mphClear
11:00 PM44.6 °F15.8 °F31 %30.36 in15.0 miNE (50°)12.7 mphClear
Hourly data recorded from CYUL, located miles away from Sorel, Quebec







STORIES FROM OUR PARTNERS